Flag for Russia Past Weather in Petropavlovsk-Kamchatsky, Russia — Yesterday and Last 2 Weeks

Now
45 °F

Clear.


Feels Like: 40 °F
Forecast: 31 / 46 °F
Wind: 8 mph from North

Location: Petropavlovsk-Kamchatskij

Current Time: Apr 24, 2017 at 2:12:53 pm

Latest Report: Apr 24, 2017 at 1:30 pm


Visibility: N/A

Pressure: 29.95 "Hg

Humidity: 46%

Dew Point: 25 °F

Location of Petropavlovsk-KamchatskyLocation

Past Weather in Petropavlovsk-Kamchatsky — Graph

°F

Petropavlovsk-Kamchatsky Temperature Yesterday

Maximum temperature yesterday: 41 °F (at 1:30 pm)
Minimum temperature yesterday: 32 °F (at 5:00 am)
Average temperature yesterday: 37 °F

High & Low Weather Summary for the Past Weeks

 TemperatureHumidityPressure
High46 °F (Apr 21, 2:00 pm)93% (Apr 10, 3:00 am)29.98 "Hg (Apr 10, 3:00 am)
Low19 °F (Apr 12, 7:00 am)28% (Apr 12, 1:30 pm)28.80 "Hg (Apr 14, 3:00 am)
Average35 °F66%29.57 "Hg
* Reported Apr 9 1:00 pm — Apr 24 1:00 pm, Petropavlovsk-Kamchatsky, Weather by CustomWeather, © 2017

Note: Actual official high and low records may vary slightly from our data, if they occured in-between our weather recording intervals... More about our weather records

Advertising

Petropavlovsk-Kamchatsky Weather History for the Previous 24 Hours

Scroll right to see more
 ConditionsComfort  
Time TempWeatherWind HumidityBarometerVisibility
1:00 pm
Mon, Apr 24
43 °FClear.13 mph49%29.95 "HgN/A
12:30 pm43 °FClear.13 mph46%29.95 "HgN/A
12:00 pm41 °FClear.13 mph45%29.95 "HgN/A
11:30 am41 °FPassing clouds.10 mph49%29.95 "HgN/A
11:00 am39 °FPassing clouds.10 mph48%29.95 "HgN/A
10:30 am36 °FPassing clouds.3 mph60%29.98 "HgN/A
10:00 am34 °FPassing clouds.1 mph65%29.98 "HgN/A
9:30 am34 °FPassing clouds.1 mph65%29.98 "HgN/A
9:00 am32 °FPassing clouds.3 mph69%29.98 "HgN/A
8:30 am32 °FPassing clouds.1 mph69%29.98 "HgN/A
8:00 am30 °FPassing clouds.1 mph75%29.98 "HgN/A
7:30 am30 °FPassing clouds.3 mph69%29.98 "HgN/A
7:00 am28 °FPassing clouds.6 mph74%29.98 "HgN/A
6:00 am27 °FPassing clouds.3 mph86%29.95 "HgN/A
5:00 am27 °FPassing clouds.6 mph86%29.95 "HgN/A
4:00 am27 °FPassing clouds.No wind93%29.95 "HgN/A
3:00 am28 °FPassing clouds.6 mph86%29.95 "HgN/A
2:00 am30 °FPassing clouds.3 mph86%29.95 "HgN/A
1:00 am30 °FPassing clouds.6 mph80%29.95 "HgN/A
12:00 am30 °FPassing clouds.3 mph86%29.95 "HgN/A
11:00 pm
Sun, Apr 23
32 °FPassing clouds.1 mph80%29.95 "HgN/A
10:00 pm34 °FSnow flurries. Passing clouds.6 mph75%29.95 "HgN/A
9:00 pm34 °FPassing clouds.6 mph70%29.95 "HgN/A
8:00 pm36 °FScattered clouds.8 mph65%29.92 "HgN/A
7:00 pm36 °FScattered clouds.10 mph60%29.92 "HgN/A
6:30 pm37 °FScattered clouds.13 mph56%29.89 "HgN/A
6:00 pm37 °FScattered clouds.15 mph65%29.89 "HgN/A
5:30 pm37 °FScattered clouds.15 mph60%29.89 "HgN/A
5:00 pm39 °FClear.13 mph61%29.89 "HgN/A
4:30 pm39 °FClear.13 mph56%29.89 "HgN/A
4:00 pm39 °FClear.13 mph61%29.89 "HgN/A
3:30 pm39 °FClear.10 mph56%29.89 "HgN/A
2:30 pm41 °FPartly sunny.10 mph57%29.89 "HgN/A
2:00 pm41 °FClear.8 mph53%29.89 "HgN/A
Weather by CustomWeather, © 2017

See weather overviewHow to use our weather pages